Location: Bourg-d�Oueil
(42.8588°N, 0.4991°E)
Time: 14:14:44
(UTC+00:00)

Cosmos 1980 - Pass Details

Date: 16 June 2021
Orbit: 839 x 847 km, 71.0° (Epoch: 31 July)

Event Time Altitude Azimuth Distance (km) Brightness Sun altitude
Exits shadow 22:50:22 42° 131° (SE) 1,189 4.0 -21.9°
Maximum altitude 22:51:11 45° 107° (ESE) 1,141 4.1 -21.9°
Drops below altitude 10° 22:56:33 10° 36° (NE) 2,477 6.6 -22.2°
Sets 22:59:06 0° 31° (NNE) 3,418 7.5 -22.3°
